Regional Weather Roundup
Issued by NWS

Home | Current Version | Previous Version | Graphics & Text | Print | Product List | Glossary On
Versions: 1 2 3 4 5 6 7 8 9 10 11 12 13 14 15 16 17 18 19 20 21 22 23 24 25 26 27 28 29 30 31 32 33 34 35 36 37 38 39 40 41 42 43 44 45 46 47 48 49 50
000
ASUS45 KCYS 181810
RWRWY

WYOMING REGIONAL WEATHER ROUNDUP
NATIONAL WEATHER SERVICE CHEYENNE WY
1100 AM MST THU DEC 18 2014

NOTE:  "FAIR" INDICATES FEW OR NO CLOUDS BELOW 12,000 FEET
WITH NO SIGNIFICANT WEATHER AND/OR OBSTRUCTIONS TO VISIBILITY.

WYZ001-181900-
YELLOWSTONE NATIONAL PARK

CITY           SKY/WX    TMP DP  RH WIND       PRES   REMARKS
LK YELLOWSTONE   N/A     23  16  74 VRB5      30.08R WCI  17
6HR MIN TEMP:  17; 6HR MAX TEMP:  23;

W YELLOWSTONE  NOT AVBL

$$
WYZ002>013-054>058-071-098>099-181900-
NORTHERN WYOMING

CITY           SKY/WX    TMP DP  RH WIND       PRES   REMARKS
JACKSON        PTSUNNY   21  19  93 CALM      30.11R
CODY           FAIR      37  18  44 W9        30.01F WCI  31
GREYBULL       FAIR      15  11  83 CALM      30.10F
6HR MIN TEMP:   5; 6HR MAX TEMP:  16;

WORLAND        FAIR      12   8  84 S5        30.08F WCI   4
6HR MIN TEMP:  -5; 6HR MAX TEMP:  12;

SHERIDAN       FAIR      31  16  54 CALM      29.99F
6HR MIN TEMP:  10; 6HR MAX TEMP:  31;

BUFFALO        FAIR      40  16  37 VRB6      30.00F
6HR MIN TEMP:  21; 6HR MAX TEMP:  40;

GILLETTE       FAIR      34  21  59 SW13      30.00S WCI  25
6HR MIN TEMP:  12; 6HR MAX TEMP:  34;

HULETT           N/A     32  28  86 MISG        N/A
NEWCASTLE      FAIR      28  28 100 CALM      30.04S

$$
WYZ014>020-022>026-101>103-181900-
CENTRAL WYOMING

CITY           SKY/WX    TMP DP  RH WIND       PRES   REMARKS
BIG PINEY      FAIR      23  16  74 SW3       30.11S
6HR MIN TEMP:   4; 6HR MAX TEMP:  23;

PINEDALE       FAIR      21  12  68 NW6       30.11S WCI  14
DUBOIS         FAIR      30  14  51 W20       30.03F WCI  18
LANDER         FOG        4   1  88 E5        30.07F VSB 3/4 WCI  -5
6HR MIN TEMP:  -5; 6HR MAX TEMP:   5;

RIVERTON       FOG       10   6  84 NE3       30.08S VSB 1/4
6HR MIN TEMP:   6; 6HR MAX TEMP:  11; 6HR PCP: TRACE;

CASPER         FAIR      27  17  66 SW15      30.06S WCI  15
6HR MIN TEMP:  17; 6HR MAX TEMP:  27;

DOUGLAS        FAIR      30  19  63 W6        30.05S WCI  24
6HR MIN TEMP:   3; 6HR MAX TEMP:  30;


$$
WYZ021-027>030-104>119-181900-
SOUTHERN WYOMING

CITY           SKY/WX    TMP DP  RH WIND       PRES   REMARKS
EVANSTON       PTSUNNY   29  24  82 SW6       30.12R WCI  23
6HR MIN TEMP:  20; 6HR MAX TEMP:  29;

KEMMERER       CLOUDY    28  25  86 W3        30.11S
FORT BRIDGER   FAIR      34  23  63 W8        30.14S WCI  27
ROCK SPRINGS   FAIR      25  20  81 W5        30.12  WCI  19
6HR MIN TEMP:  13; 6HR MAX TEMP:  25;

DIXON          CLOUDY    22  20  90 CALM      30.17S
RAWLINS        FAIR      26  20  77 SW13      30.10R WCI  15
6HR MIN TEMP:  18; 6HR MAX TEMP:  26;

SARATOGA       FAIR      23  16  74 CALM      30.11S
LARAMIE        FAIR      30  17  58 SW15      30.02S WCI  19
6HR MIN TEMP:  11; 6HR MAX TEMP:  30;

CHEYENNE       FAIR      39  14  36 W18       30.02F WCI  30
6HR MIN TEMP:  20; 6HR MAX TEMP:  39;

TORRINGTON     FAIR      17  15  92 CALM      30.04F
6HR MIN TEMP:   5; 6HR MAX TEMP:  17;

PINE BLUFFS    FAIR      41  19  42 W16       30.04S

$$


USA.gov is the U.S. government's official web portal to all federal, state and local government web resources and services.